Temp
-6 -7 -7 -7 -6 -6 -6 -6 -6 -6 -6 -7 -7 -7 -7 -7 -7 -7 -7 -7 -7 -7 -7 -7 -7 -7 -6 -6 -6 -7 -7 -7 -7 -7 -7 -7 -7 -7 -7 -7 -7 -7 -7
-6 -7 -7 -7 -6 -6 -6 -6 -7 -6 -6 -7 -7 -7 -7 -7 -7 -7 -7 -7 -7 -7 -7 -7 -7 -7 -7 -7 -7 -7 -7 -7 -7 -7 -7 -7 -7 -7 -7 -7 -7 -7 -8
-7 -7 -7 -7 -6 -7 -7 -6 -7 -7 -7 -8 -8 -8 -7 -7 -7 -8 -8 -8 -7 -7 -7 -7 -7 -7 -7 -7 -8 -7 -7 -7 -7 -7 -7 -7 -7 -7 -7 -7 -7 -8 -8
-7 -7 -7 -7 -7 -7 -6 -7 -7 -8 -8 -8 -8 -8 -8 -7 -8 -8 -8 -8 -7 -7 -7 -7 -8 -8 -8 -7 -7 -7 -7 -7 -7 -7 -7 -7 -7 -7 -7 -7 -8 -8 -8
-7 -8 -8 -8 -7 -7 -7 -8 -8 -8 -8 -8 -8 -8 -8 -8 -8 -8 -8 -8 -8 -7 -8 -8 -8 -8 -8 -7 -7 -7 -7 -7 -7 -7 -7 -7 -7 -7 -8 -8 -8 -8 -9
-7 -8 -8 -8 -7 -7 -8 -8 -8 -8 -8 -8 -8 -8 -8 -8 -8 -8 -8 -8 -8 -8 -8 -8 -8 -8 -7 -7 -7 -7 -7 -7 -7 -7 -7 -7 -7 -8 -8 -8 -8 -9 -9
-8 -8 -8 -8 -8 -8 -8 -8 -8 -8 -8 -8 -8 -8 -8 -8 -8 -8 -8 -8 -8 -8 -8 -8 -8 -8 -7 -7 -7 -7 -7 -7 -7 -7 -7 -8 -8 -8 -8 -8 -9 -9 -9
-8 -8 -8 -8 -8 -8 -8 -8 -8 -8 -8 -8 -9 -9 -9 -9 -9 -9 -8 -8 -8 -8 -8 -8 -8 -8 -7 -7 -7 -7 -7 -7 -7 -8 -8 -8 -8 -9 -9 -9 -9 -9 -9
-9 -8 -8 -8 -8 -8 -8 -8 -8 -8 -8 -8 -9 -9 -9 -9 -9 -9 -9 -8 -8 -8 -8 -8 -8 -8 -7 -7 -7 -7 -7 -8 -8 -8 -8 -9 -8 -9 -9 -9 -9 -9 -9
-9 -9 -9 -8 -8 -8 -8 -8 -8 -8 -8 -8 -9 -9 -9 -9 -9 -9 -9 -8 -8 -8 -8 -9 -8 -8 -8 -8 -8 -8 -8 -8 -8 -8 -8 -8 -8 -8 -8 -8 -9 -9 -9
-9 -9 -9 -8 -8 -8 -8 -9 -9 -9 -9 -9 -9 -9 -10 -9 -9 -9 -9 -8 -8 -8 -8 -8 -8 -8 -8 -8 -8 -8 -8 -8 -8 -8 -8 -8 -8 -8 -9 -9 -9 -9 -9
-9 -9 -9 -8 -9 -9 -9 -9 -9 -9 -9 -9 -10 -10 -10 -9 -9 -9 -9 -9 -8 -8 -8 -8 -8 -8 -8 -8 -8 -8 -8 -8 -8 -8 -8 -8 -9 -9 -9 -9 -9 -9 -9
-9 -8 -8 -9 -9 -8 -9 -9 -9 -9 -9 -9 -10 -10 -10 -9 -9 -9 -9 -9 -9 -8 -8 -8 -8 -8 -8 -8 -8 -8 -8 -8 -9 -9 -9 -9 -9 -9 -9 -9 -9 -9 -10
-8 -9 -9 -8 -8 -8 -8 -9 -9 -9 -9 -9 -10 -10 -10 -9 -9 -9 -9 -9 -8 -8 -8 -8 -8 -8 -8 -8 -8 -9 -9 -9 -9 -9 -9 -9 -9 -10 -10 -10 -10 -10 -10
-8 -8 -8 -8 -8 -8 -8 -9 -9 -9 -9 -9 -9 -9 -9 -9 -9 -9 -9 -8 -8 -8 -8 -8 -8 -8 -8 -8 -9 -8 -9 -9 -9 -9 -10 -10 -10 -10 -10 -10 -10 -10 -10
-8 -8 -8 -8 -8 -8 -8 -8 -9 -9 -9 -9 -9 -9 -9 -9 -9 -9 -9 -8 -8 -8 -8 -8 -8 -8 -8 -8 -9 -9 -9 -10 -10 -10 -10 -10 -10 -10 -10 -10 -10 -10 -10
-8 -8 -8 -8 -7 -8 -8 -8 -8 -9 -9 -9 -9 -9 -9 -8 -8 -9 -8 -8 -8 -8 -8 -8 -8 -8 -8 -8 -9 -9 -9 -10 -9 -9 -10 -10 -10 -10 -10 -10 -10 -10 -9
-8 -8 -7 -7 -7 -7 -7 -7 -8 -8 -9 -9 -9 -9 -8 -8 -8 -8 -8 -7 -7 -7 -7 -8 -8 -8 -8 -8 -8 -9 -9 -9 -9 -9 -10 -10 -10 -10 -10 -10 -10 -10 -9
-7 -7 -7 -7 -7 -7 -7 -7 -8 -8 -8 -9 -9 -9 -8 -8 -8 -8 -7 -7 -8 -6 -7 -7 -8 -8 -8 -8 -8 -9 -9 -9 -9 -9 -9 -10 -10 -10 -10 -10 -10 -10 -9
-7 -7 -7 -7 -7 -7 -7 -7 -7 -8 -8 -8 -8 -8 -8 -8 -8 -7 -6 -8 -6 -7 -6 -7 -7 -8 -8 -8 -8 -9 -9 -9 -9 -9 -9 -9 -10 -10 -10 -10 -9 -10 -9
-6 -7 -6 -6 -6 -7 -7 -7 -7 -7 -8 -7 -8 -8 -8 -8 -7 -7 -6 -6 -5 -5 -6 -7 -7 -8 -8 -8 -8 -9 -9 -8 -8 -8 -9 -9 -9 -10 -10 -10 -9 -8 -8
-6 -6 -6 -6 -6 -7 -7 -7 -7 -7 -7 -7 -7 -7 -7 -7 -7 -7 -7 -7 -7 -7 -7 -7 -7 -7 -8 -8 -9 -7 -8 -8 -9 -7 -8 -8 -8 -9 -9 -9 -9 -8 -7
-6 -6 -6 -6 -6 -6 -7 -7 -7 -7 -7 -7 -7 -7 -7 -7 -7 -7 -7 -7 -7 -7 -7 -7 -7 -7 -3 -8 -8 -7 -7 -7 -8 -9 -8 -8 -8 -8 -9 -8 -8 -7 -7
-6 -6 -6 -6 -6 -6 -6 -6 -7 -7 -7 -7 -7 -7 -7 -7 -7 -7 -7 -7 -7 -7 -7 -7 -6 -6 -7 -8 -8 -7 -7 -7 -7 -8 -9 -5 -7 -8 -8 -7 -7 -7 -7
-6 -6 -6 -6 -6 -6 -6 -7 -6 -6 -6 -7 -7 -7 -7 -7 -7 -7 -7 -7 -7 -7 -7 -7 -7 -7 -7 -7 -7 -7 -7 -7 -7 -7 -7 -6 -7 -7 -7 -7 -6 -6 -7
-6 -6 -6 -6 -6 -6 -6 -6 -7 -7 -7 -6 -7 -7 -7 -7 -7 -7 -7 -7 -7 -7 -7 -7 -7 -7 -7 -7 -7 -7 -7 -7 -7 -7 -6 -6 -6 -6 -7 -7 -6 -7 -6
Height
5870 5869 5868 5869 5870 5871 5873 5873 5872 5876 5878 5880 5882 5885 5887 5888 5889 5891 5891 5893 5895 5896 5897 5896 5897 5897 5898 5898 5899 5900 5900 5901 5901 5901 5901 5902 5902 5902 5902 5902 5903 5903 5902
5870 5870 5869 5869 5870 5872 5873 5871 5875 5878 5879 5883 5885 5886 5888 5889 5891 5893 5894 5895 5896 5898 5898 5898 5899 5899 5899 5901 5902 5902 5903 5904 5904 5904 5904 5905 5906 5906 5906 5906 5906 5905 5905
5872 5870 5869 5869 5870 5872 5874 5875 5877 5880 5881 5884 5886 5888 5890 5890 5893 5894 5895 5897 5898 5899 5899 5900 5901 5901 5902 5903 5904 5906 5906 5907 5906 5906 5907 5908 5908 5909 5909 5909 5909 5908 5907
5874 5872 5872 5873 5874 5876 5877 5879 5881 5882 5883 5886 5888 5889 5890 5892 5894 5896 5897 5898 5900 5901 5900 5903 5904 5904 5905 5906 5908 5908 5909 5909 5909 5910 5911 5911 5911 5912 5912 5912 5912 5910 5909
5876 5875 5876 5877 5878 5879 5880 5881 5884 5885 5885 5887 5889 5891 5892 5893 5895 5897 5898 5900 5902 5903 5903 5905 5906 5907 5908 5910 5911 5911 5912 5913 5912 5913 5913 5914 5915 5915 5915 5914 5913 5912 5912
5880 5879 5879 5879 5880 5880 5882 5884 5885 5885 5887 5889 5890 5892 5893 5895 5896 5898 5900 5902 5904 5905 5906 5908 5908 5909 5911 5914 5914 5914 5915 5915 5916 5916 5917 5917 5918 5918 5917 5916 5915 5915 5914
5881 5881 5880 5881 5882 5883 5884 5885 5887 5887 5889 5890 5891 5893 5894 5896 5897 5899 5901 5903 5905 5907 5908 5910 5909 5913 5915 5916 5917 5917 5918 5919 5919 5920 5921 5921 5920 5919 5919 5917 5917 5916 5915
5882 5883 5882 5883 5884 5885 5886 5887 5888 5889 5891 5891 5892 5894 5896 5897 5899 5901 5903 5905 5907 5909 5911 5912 5914 5916 5917 5918 5919 5920 5921 5921 5923 5924 5924 5923 5922 5922 5920 5919 5919 5918 5916
5884 5885 5885 5885 5886 5887 5888 5888 5890 5891 5892 5892 5894 5895 5897 5899 5901 5903 5905 5907 5909 5910 5913 5915 5917 5919 5920 5922 5923 5924 5924 5925 5926 5927 5927 5926 5925 5923 5923 5922 5921 5919 5918
5886 5887 5888 5889 5889 5889 5889 5891 5892 5893 5893 5894 5895 5897 5899 5901 5903 5905 5908 5910 5911 5913 5916 5916 5920 5921 5923 5924 5925 5926 5928 5929 5929 5930 5929 5928 5927 5926 5926 5925 5924 5922 5920
5888 5889 5892 5892 5892 5892 5892 5893 5893 5894 5895 5896 5898 5900 5901 5903 5905 5907 5909 5911 5913 5916 5918 5921 5922 5924 5926 5927 5928 5930 5931 5932 5932 5932 5932 5931 5930 5930 5930 5928 5926 5925 5922
5889 5890 5892 5892 5893 5893 5893 5894 5894 5895 5896 5899 5901 5902 5904 5905 5907 5909 5910 5913 5916 5918 5920 5923 5925 5927 5929 5931 5932 5934 5934 5934 5935 5935 5934 5934 5933 5933 5932 5930 5928 5926 5923
5892 5892 5895 5895 5895 5895 5895 5895 5895 5897 5898 5900 5902 5903 5905 5907 5909 5911 5913 5915 5918 5920 5923 5925 5928 5930 5933 5935 5936 5936 5937 5937 5938 5938 5937 5936 5936 5935 5934 5932 5930 5928 5925
5894 5895 5896 5897 5897 5898 5898 5899 5897 5898 5900 5902 5905 5906 5907 5909 5911 5913 5916 5918 5921 5924 5926 5928 5930 5933 5935 5937 5938 5939 5939 5940 5940 5939 5939 5938 5937 5936 5935 5933 5931 5928 5925
5898 5899 5899 5900 5900 5900 5901 5900 5900 5901 5903 5905 5906 5908 5910 5912 5913 5915 5918 5922 5925 5926 5928 5931 5933 5935 5938 5939 5941 5941 5942 5942 5942 5942 5941 5940 5939 5938 5937 5934 5932 5929 5925
5900 5901 5902 5902 5902 5903 5903 5904 5904 5904 5906 5907 5909 5911 5913 5914 5916 5919 5921 5924 5926 5929 5931 5933 5936 5938 5940 5942 5943 5944 5944 5944 5944 5943 5943 5941 5940 5939 5938 5935 5933 5929 5926
5902 5904 5904 5905 5906 5906 5906 5907 5907 5909 5910 5911 5912 5915 5915 5917 5920 5922 5924 5926 5929 5932 5934 5936 5939 5941 5943 5943 5944 5944 5944 5945 5945 5944 5944 5943 5942 5940 5939 5936 5933 5929 5926
5906 5907 5906 5908 5910 5909 5909 5909 5909 5912 5912 5913 5914 5916 5917 5920 5923 5925 5927 5929 5935 5937 5937 5939 5940 5942 5943 5944 5944 5944 5945 5945 5945 5944 5944 5944 5943 5941 5939 5936 5932 5929 5926
5909 5911 5909 5911 5912 5911 5912 5912 5912 5913 5915 5916 5916 5919 5921 5923 5925 5927 5925 5931 5927 5937 5942 5941 5942 5943 5943 5944 5945 5945 5946 5945 5945 5945 5945 5944 5943 5941 5938 5936 5932 5929 5927
5911 5913 5912 5915 5916 5915 5916 5916 5916 5916 5917 5919 5920 5922 5924 5926 5928 5929 5926 5932 5894 5931 5945 5943 5943 5943 5944 5945 5946 5947 5947 5947 5946 5946 5945 5944 5942 5940 5937 5934 5933 5931 5928
5912 5914 5915 5917 5919 5919 5919 5919 5919 5919 5920 5922 5924 5926 5927 5928 5931 5932 5930 5934 5918 5932 5946 5944 5943 5944 5945 5946 5947 5946 5945 5945 5946 5947 5946 5945 5942 5940 5938 5936 5934 5931 5929
5913 5916 5917 5919 5921 5922 5921 5921 5922 5923 5924 5926 5927 5927 5929 5930 5931 5933 5935 5937 5941 5944 5944 5944 5944 5945 5947 5947 5950 5947 5947 5945 5941 5947 5950 5948 5944 5941 5938 5936 5934 5932 5930
5913 5916 5919 5921 5922 5923 5924 5925 5925 5927 5927 5929 5929 5930 5931 5932 5934 5935 5937 5939 5941 5943 5945 5944 5945 5947 5953 5948 5946 5946 5944 5924 5942 5933 5944 5945 5947 5942 5938 5936 5935 5933 5932
5914 5916 5919 5921 5923 5924 5926 5927 5928 5929 5930 5931 5932 5932 5933 5934 5935 5937 5939 5940 5941 5943 5944 5944 5945 5945 5947 5947 5946 5946 5943 5943 5943 5942 5946 5945 5946 5943 5940 5938 5936 5935 5933
5914 5917 5919 5921 5924 5925 5926 5928 5930 5932 5933 5934 5935 5935 5935 5936 5937 5938 5939 5941 5943 5943 5944 5944 5945 5944 5946 5947 5947 5945 5943 5942 5942 5946 5945 5945 5945 5941 5941 5939 5937 5936 5934
5913 5916 5918 5920 5922 5925 5927 5929 5930 5932 5934 5936 5936 5937 5937 5937 5938 5939 5941 5942 5942 5943 5944 5944 5944 5944 5945 5946 5947 5946 5946 5946 5945 5944 5944 5943 5942 5941 5942 5939 5937 5936 5935
Wind_Speed
7 3 8 8 2 7 10 14 22 24 20 17 18 17 14 13 11 10 11 10 10 9 7 8 9 8 9 10 10 11 10 12 12 12 11 11 10 11 12 12 11 11 12
6 2 3 6 8 12 9 15 15 18 17 17 17 16 14 14 10 10 10 9 9 9 9 9 9 9 10 10 10 11 12 10 10 10 11 12 12 11 11 12 11 11 12
6 11 10 10 10 11 17 15 15 15 16 16 18 17 16 15 14 13 11 10 10 10 11 10 11 11 11 7 12 11 10 10 12 14 14 12 12 11 11 12 11 12 11
12 12 15 17 16 17 14 15 15 19 20 18 17 17 16 14 12 12 12 11 11 11 12 11 11 11 10 13 11 11 12 14 14 14 10 12 11 12 12 11 11 11 11
6 8 10 13 14 12 13 20 17 17 18 16 15 15 14 13 11 10 11 11 11 13 14 11 10 9 11 12 11 13 14 13 13 12 12 12 11 12 12 12 11 11 12
8 10 13 14 14 14 14 15 15 15 14 14 14 13 13 11 9 8 10 11 11 11 11 8 13 11 12 11 13 13 13 12 12 12 13 13 12 12 12 11 11 11 11
10 10 11 12 12 12 13 14 14 14 14 14 13 13 12 10 9 9 11 11 10 10 10 9 13 10 11 11 13 12 12 13 13 14 13 12 12 13 14 15 12 12 11
10 9 10 11 13 14 14 14 14 13 13 14 13 12 11 11 11 11 12 13 12 12 10 9 10 11 11 12 12 13 13 16 14 14 13 13 16 17 16 13 11 10 10
11 11 13 13 15 15 14 14 14 14 13 13 13 12 12 12 12 13 15 15 14 13 11 10 12 12 11 13 14 14 15 16 14 14 15 17 19 17 15 13 11 11 10
14 15 14 12 13 12 12 11 11 10 11 13 13 12 12 12 13 14 14 15 15 15 12 12 14 12 13 15 14 15 16 15 15 15 17 18 18 17 16 15 14 14 14
16 14 13 10 9 9 10 9 10 10 10 12 14 14 14 13 13 14 15 16 15 15 14 15 13 14 15 14 17 16 16 15 16 15 16 17 17 16 15 14 15 15 14
13 12 8 8 8 8 8 8 8 10 11 11 12 13 15 14 14 15 16 17 17 16 15 15 14 16 15 14 17 16 16 16 15 15 16 15 15 13 13 13 13 13 14
11 11 10 8 9 10 11 9 10 12 14 12 13 14 16 16 16 17 17 18 17 16 14 14 15 17 17 16 16 17 16 15 14 14 14 13 12 12 12 12 12 14 15
10 10 10 13 16 16 16 13 12 16 16 15 15 14 15 16 16 18 18 18 16 15 15 15 17 17 16 16 15 17 15 14 12 12 13 13 13 12 12 12 12 13 14
13 13 13 13 15 16 17 16 16 17 17 16 16 16 14 16 18 20 20 18 16 16 16 16 18 17 16 15 14 13 13 12 11 12 12 12 11 10 9 11 12 13 12
13 13 12 12 15 15 16 17 18 18 18 16 16 16 16 16 17 20 20 21 15 15 16 17 17 16 14 14 13 13 12 11 11 10 9 8 8 9 11 13 14 16 13
14 14 14 15 16 17 17 17 17 18 16 17 16 16 18 18 18 18 23 17 16 16 16 16 16 14 13 13 11 11 10 9 8 6 6 7 9 12 13 15 17 15 11
13 15 16 18 17 18 19 18 18 18 18 16 16 19 20 20 21 19 17 19 18 16 13 14 14 14 14 12 9 8 7 6 5 4 5 7 10 11 13 15 15 13 8
13 13 15 18 18 19 20 20 19 18 17 17 18 22 24 20 19 17 20 20 22 18 12 14 15 15 14 11 9 6 4 2 2 4 7 8 10 12 13 14 19 9 6
11 14 15 16 17 17 18 19 18 19 18 19 21 21 20 20 18 16 17 13 5 19 13 13 14 14 13 11 8 4 1 3 5 7 8 10 12 14 18 17 9 5 5
9 13 15 15 16 15 15 17 17 18 17 18 19 21 21 20 16 15 14 12 13 12 13 11 12 12 10 8 5 2 2 2 5 8 10 12 14 14 15 11 8 6 6
9 11 15 16 16 15 15 14 14 15 16 17 18 18 17 17 16 16 13 11 12 12 12 10 9 7 5 4 5 7 8 6 4 11 13 11 10 11 10 8 8 7 6
10 10 14 16 15 14 13 13 13 13 13 14 16 16 16 15 14 13 11 11 11 11 9 8 7 5 7 6 4 2 15 13 10 14 3 9 10 7 7 7 7 6 7
12 12 14 15 15 13 12 12 11 11 12 11 12 14 14 14 13 11 10 10 10 9 9 8 7 7 7 4 4 5 7 7 8 7 13 9 3 6 5 7 8 8 10
13 13 13 15 15 14 12 11 10 11 12 12 12 12 12 12 11 10 9 8 7 7 7 6 6 6 4 3 3 5 6 8 6 4 5 6 5 3 4 7 9 9 10
14 13 14 15 15 15 14 13 12 12 11 10 11 10 11 11 10 9 9 8 7 6 6 6 5 5 4 3 4 5 4 4 3 3 4 4 5 6 6 7 8 10 10
Wind_Direction
196 160 156 174 180 173 201 208 168 170 163 145 141 140 141 135 139 141 137 142 142 143 135 126 117 108 103 109 107 99 91 89 87 82 76 72 76 85 94 93 97 94 90
192 145 193 170 170 166 195 227 163 181 164 148 144 144 142 134 136 140 131 130 135 135 134 121 113 112 111 109 103 100 97 91 84 82 81 86 89 87 90 92 92 87 79
146 105 88 95 127 179 183 161 155 150 151 153 149 141 142 141 142 137 135 139 132 132 118 114 120 114 110 101 108 103 92 90 93 89 89 89 90 86 85 83 78 74 68
133 104 102 93 129 155 168 150 145 145 139 141 146 147 146 143 145 147 143 131 125 119 115 117 118 113 104 107 103 92 95 94 91 96 92 81 84 83 78 70 65 62 59
106 82 85 99 102 124 127 131 143 141 142 146 148 150 149 146 148 147 129 126 123 122 119 115 114 113 119 112 102 98 99 96 91 88 84 87 80 74 65 55 46 53 63
105 111 115 125 126 132 131 140 147 151 150 153 150 153 157 157 157 143 132 131 135 133 128 140 113 113 115 101 101 105 101 95 92 92 90 81 71 62 55 51 55 65 66
140 121 123 128 128 132 138 142 147 148 149 153 151 151 151 152 156 156 145 143 144 140 141 135 124 117 109 104 109 105 99 95 96 91 83 76 67 61 58 58 61 66 61
121 126 129 130 126 128 136 141 146 148 155 154 153 154 152 147 153 154 151 153 153 149 145 132 124 119 111 111 105 98 99 99 92 86 82 76 74 70 67 68 71 68 59
127 127 131 133 131 127 127 132 136 139 143 144 146 155 154 149 153 151 154 154 154 146 135 134 124 120 117 109 103 100 99 94 90 90 86 84 82 80 77 77 75 68 59
128 126 124 131 127 124 131 134 134 134 135 135 139 145 146 150 152 152 152 152 147 142 145 96 126 125 117 108 107 102 95 93 92 91 92 92 88 83 77 73 71 63 54
126 126 128 134 125 121 126 130 135 139 139 141 140 140 142 143 146 143 145 147 147 143 139 139 133 118 116 112 104 98 94 94 92 96 95 90 86 80 74 66 58 49 40
123 123 130 124 115 112 111 125 135 142 137 136 129 133 138 139 144 143 144 144 143 142 140 138 122 116 111 110 103 100 97 93 97 94 90 88 81 73 65 57 49 41 31
127 133 131 131 117 111 112 117 137 148 144 140 137 132 142 143 144 145 148 146 144 139 136 127 118 113 113 109 106 101 97 100 95 89 86 80 75 64 52 42 31 25 19
130 123 129 121 108 111 113 108 123 139 141 144 146 135 140 143 142 144 145 145 141 133 128 122 120 117 116 112 108 102 103 100 96 90 81 75 68 58 46 38 33 27 20
126 127 129 125 118 117 118 113 120 139 144 144 146 140 139 142 145 147 147 138 130 137 129 124 123 124 122 115 104 107 102 94 91 85 78 73 70 61 45 37 27 16 5
127 128 130 132 131 126 120 113 114 124 144 144 144 144 139 143 148 149 150 145 141 130 128 129 130 130 122 113 106 99 92 92 91 85 76 59 49 41 37 23 17 5 351
137 127 126 126 128 127 118 115 113 117 123 133 135 135 137 142 144 141 145 144 135 130 130 134 131 124 117 112 108 109 108 107 95 86 66 45 27 19 16 6 1 3 359
143 129 131 129 131 125 120 118 118 117 122 125 133 140 138 139 140 139 136 129 122 126 133 131 128 125 123 126 132 127 122 117 107 62 47 29 15 345 2 347 351 11 12
152 138 140 134 130 127 122 121 121 122 121 113 127 142 138 138 137 133 128 127 147 135 137 133 132 131 140 145 152 151 132 117 51 19 8 3 1 353 345 356 16 22 23
163 161 153 143 138 130 125 123 124 122 123 123 127 141 145 143 141 138 137 139 49 112 161 145 143 146 155 158 161 157 181 347 353 355 349 350 352 354 18 11 17 30 32
161 165 164 154 143 134 130 129 129 123 126 131 139 136 140 146 148 147 150 134 84 153 176 163 161 164 169 173 158 199 257 316 353 349 346 356 7 16 14 15 20 27 25
167 163 170 161 157 151 144 140 130 129 134 138 141 143 150 157 160 164 165 160 146 185 178 178 181 185 193 213 130 280 293 271 95 11 360 5 24 15 25 33 36 25 19
175 180 177 172 172 165 157 149 144 141 138 139 138 142 148 158 165 164 170 170 174 178 192 198 205 211 91 255 265 227 255 292 54 294 299 357 356 16 27 39 34 18 13
182 190 189 185 183 180 168 158 149 149 148 148 142 143 144 150 156 162 165 172 174 179 189 200 211 215 222 228 266 291 311 348 47 358 1 346 44 28 38 27 18 18 13
190 193 193 193 190 188 187 181 169 153 154 158 158 155 151 152 157 163 164 167 169 183 189 204 221 233 241 259 272 286 332 348 356 357 41 79 84 71 21 6 11 18 15
196 200 198 197 198 196 193 190 189 176 169 161 160 161 164 164 167 174 179 180 182 191 200 211 230 250 263 275 284 292 306 310 316 22 55 54 44 43 12 3 5 14 15